Wind_Speed
7 5 3 3 2 2 3 2 4 3 2 1 13 4 6 3 4 3 19 25 21 22 23 22 19 18 18 17 17 17 16 14 12 11 12 14 14 14 13 13 13 14 12 13 12 13 14 16 16
9 5 0 2 2 3 3 1 5 2 11 21 14 14 5 2 4 15 25 22 21 23 23 21 19 17 18 17 17 17 16 14 12 11 12 14 14 14 13 13 13 14 13 14 12 13 17 16 18
8 5 2 0 1 2 4 4 8 12 18 7 6 10 4 5 12 21 17 20 26 24 22 21 18 17 17 17 16 16 15 14 12 11 12 12 13 12 11 13 13 14 15 12 12 16 18 17 19
7 4 3 2 3 6 5 9 11 13 10 8 11 6 6 3 18 17 17 23 26 23 21 19 17 16 16 17 16 15 14 13 13 12 12 11 11 10 10 12 14 13 14 10 13 18 19 21 23
8 3 2 1 4 4 1 17 21 8 8 10 8 4 4 15 17 17 16 25 25 21 19 18 17 16 16 15 14 14 14 13 12 11 11 12 11 11 10 9 11 12 12 10 14 20 20 22 20
3 0 3 4 4 3 2 19 13 9 12 12 10 7 6 17 19 17 16 24 22 19 19 19 17 17 17 16 16 14 14 14 12 11 11 11 11 10 10 10 8 10 11 10 15 20 21 21 19
2 2 1 4 2 2 4 16 6 12 16 7 23 5 7 22 19 16 22 25 22 21 19 19 19 18 17 16 16 15 14 13 13 11 11 11 10 9 9 8 9 8 9 10 14 18 20 21 20
2 1 5 4 5 6 4 7 15 20 14 14 18 7 7 28 23 21 25 25 23 20 19 18 19 19 18 18 16 15 14 14 13 12 11 12 10 9 9 8 9 8 7 9 13 17 19 20 20
3 2 3 4 4 6 7 5 15 9 22 13 16 13 9 31 30 27 27 27 25 22 20 19 20 19 18 17 17 16 15 14 12 12 11 11 10 9 10 10 9 9 9 8 11 14 18 19 21
7 4 7 8 9 9 15 10 16 9 14 8 18 13 25 32 34 33 32 31 28 23 21 19 19 18 18 18 18 17 15 14 13 11 10 8 9 9 10 11 10 9 10 9 9 11 15 19 21
8 5 8 16 18 17 18 16 10 11 5 15 27 30 39 37 36 32 33 30 27 21 20 18 17 19 19 19 17 16 14 13 13 13 11 8 7 9 14 12 12 11 10 11 12 12 14 18 20
4 10 17 11 14 15 8 26 8 20 17 27 27 37 43 40 39 36 34 33 29 26 19 18 17 16 19 18 16 14 13 14 15 15 12 10 7 8 15 14 12 13 11 11 12 12 12 15 17
7 5 8 20 29 15 14 18 8 21 14 17 29 38 42 42 39 37 32 30 29 27 22 19 17 14 16 18 16 14 9 13 15 16 13 10 4 5 13 15 15 14 12 10 13 13 15 16 17
7 11 12 20 30 8 6 7 11 22 18 20 34 38 40 42 40 36 35 32 32 27 24 21 20 16 14 17 21 17 11 11 14 17 15 13 11 5 8 12 15 15 14 11 13 14 12 14 17
7 8 9 9 4 2 11 3 10 26 29 30 36 39 40 40 39 40 36 36 30 28 26 24 22 20 16 15 19 18 11 16 16 17 15 14 14 14 10 11 13 14 16 16 16 17 16 16 15
2 4 5 4 10 7 11 9 19 19 36 32 36 38 42 42 41 38 35 32 30 25 29 24 24 24 20 17 17 20 18 6 16 15 15 16 14 16 18 16 16 16 17 17 20 19 20 19 17
5 4 5 12 7 1 5 13 18 12 38 34 36 36 40 39 41 39 38 32 31 29 27 26 26 25 21 19 17 18 20 18 13 15 15 16 17 18 19 18 19 20 21 22 22 22 19 19 18
7 5 5 7 6 8 12 12 9 19 23 30 34 34 36 39 46 44 41 38 30 30 31 27 26 24 23 19 18 19 20 22 21 20 18 19 19 19 20 18 18 20 23 25 25 24 23 19 18
5 4 7 9 10 2 12 12 20 14 20 23 24 28 36 45 46 41 42 38 38 35 36 34 30 26 27 25 24 24 24 22 17 15 19 17 19 18 18 17 18 21 25 28 28 26 24 23 22
5 5 9 8 14 6 10 14 11 6 23 24 29 31 38 46 32 38 44 42 43 38 39 37 34 30 28 27 23 23 19 19 16 15 13 16 17 18 17 17 18 20 23 27 30 28 25 24 22
6 6 11 10 10 6 7 7 7 6 11 21 29 38 42 47 40 39 44 47 44 42 42 41 36 32 31 28 26 24 21 20 18 17 18 17 18 17 16 15 16 17 19 24 27 28 25 23 22
8 9 12 11 2 9 5 7 6 6 8 7 21 33 41 46 36 41 44 47 48 43 43 43 36 34 32 29 27 23 20 18 15 15 16 16 15 15 11 11 13 14 16 22 23 24 23 20 19
13 4 8 9 6 1 3 2 7 4 9 10 10 20 36 39 44 47 48 49 46 43 46 45 38 36 33 30 25 21 17 16 15 15 14 15 15 15 13 12 12 11 14 20 25 25 25 23 22
8 3 6 5 2 3 6 7 5 5 8 6 7 21 21 31 40 48 46 48 44 45 47 45 41 37 33 29 21 20 18 15 16 14 12 12 14 15 16 15 11 12 11 17 21 21 22 22 22
4 6 5 5 3 8 7 3 8 4 7 12 15 27 24 26 37 39 41 41 41 44 48 45 42 38 32 26 18 16 17 15 9 15 13 13 14 16 16 15 14 11 10 14 19 21 21 22 23
6 9 6 5 6 10 1 6 7 8 15 21 28 31 24 25 31 37 41 41 41 43 46 45 44 38 31 24 16 19 18 18 14 15 13 15 14 17 13 16 14 14 13 13 16 18 17 17 18
6 5 7 4 2 2 4 7 10 7 12 8 17 21 25 27 32 37 40 39 37 40 44 45 42 35 28 20 21 18 17 17 12 14 13 10 14 13 14 16 11 13 14 14 14 14 12 12 15
7 6 1 1 2 4 5 5 6 11 10 10 4 14 20 26 30 33 34 33 33 35 38 38 35 33 27 21 11 13 10 10 17 13 9 11 10 10 11 10 9 10 12 13 14 13 15 17 16
0 3 2 6 4 5 4 7 7 6 6 6 7 16 15 17 19 21 24 28 30 31 32 33 34 29 23 14 14 16 10 10 12 10 10 9 8 8 9 7 8 9 10 10 12 12 11 11 12
7 9 6 5 6 3 3 7 3 5 3 10 16 16 19 15 14 16 18 20 21 23 28 32 28 26 20 15 16 14 13 8 8 10 9 7 6 7 8 8 10 10 10 11 10 8 10 9 11
Wind_Direction
137 116 338 345 36 65 311 71 151 139 86 218 154 158 164 129 184 208 150 162 165 163 167 166 169 164 160 159 159 161 160 156 151 146 145 146 147 147 147 144 144 145 141 134 128 129 127 131 129
150 145 27 25 12 86 300 306 134 144 128 118 109 107 77 36 126 138 152 164 172 169 169 169 174 168 164 161 161 162 161 159 156 150 147 145 149 147 145 145 145 146 140 136 131 131 132 130 131
154 144 134 122 238 221 168 169 144 135 144 131 117 92 110 143 139 147 157 167 173 173 170 173 174 173 168 165 164 164 162 160 157 151 147 148 146 143 146 142 140 142 137 143 138 139 138 137 133
151 189 225 114 280 262 181 170 155 154 117 108 120 81 98 90 142 149 158 164 171 169 170 174 176 177 174 169 168 170 169 164 160 158 152 147 145 143 144 143 145 144 142 146 142 147 145 139 135
183 218 48 305 268 268 313 163 159 156 141 137 140 118 112 153 147 149 155 165 166 168 173 177 178 180 179 175 171 172 174 170 161 159 157 156 150 149 145 146 151 149 152 152 148 150 152 150 144
284 180 43 347 304 159 225 174 164 116 130 130 122 112 150 176 165 155 152 162 167 165 173 178 180 182 183 180 178 176 176 173 170 164 163 158 156 156 157 153 152 156 151 149 149 154 158 162 155
309 74 261 263 267 164 212 173 181 148 145 173 145 119 157 173 172 159 158 162 168 172 175 180 181 185 187 187 184 180 179 177 176 173 172 167 161 159 159 161 161 165 164 154 153 153 162 169 165
257 33 343 312 325 317 273 200 190 152 174 162 159 158 181 177 173 169 170 169 174 178 181 186 186 188 190 190 191 188 185 184 184 182 181 180 174 171 172 172 167 172 174 165 163 158 165 172 178
261 23 263 246 260 248 222 243 179 183 143 163 201 185 184 172 175 180 179 181 183 186 188 191 193 191 193 195 195 194 195 194 192 192 191 193 195 192 188 178 184 178 177 182 176 171 168 174 180
197 154 231 220 222 260 207 220 181 159 164 197 189 195 167 176 182 188 186 186 189 192 190 196 198 195 193 196 200 199 202 197 198 201 199 201 207 204 210 196 188 187 187 186 189 187 179 178 181
205 215 249 271 271 334 216 215 216 146 211 201 182 172 171 177 190 195 193 195 193 190 196 197 196 199 198 200 200 203 201 203 203 202 195 198 211 217 214 207 190 196 198 195 196 193 189 187 188
220 247 262 285 299 333 220 206 207 185 212 204 191 178 171 181 190 195 198 198 196 199 201 200 197 205 205 203 202 201 200 206 209 205 199 217 239 235 212 213 210 203 209 213 207 200 196 192 194
209 238 270 309 315 310 274 197 183 231 242 206 182 177 182 184 194 197 201 205 201 203 204 204 201 198 200 202 197 188 202 215 213 206 208 217 241 238 202 208 211 208 211 215 211 204 202 199 196
280 288 291 316 305 305 165 210 183 235 220 187 182 185 189 191 195 196 199 204 207 208 207 205 207 197 192 197 197 196 188 219 220 220 234 229 231 221 210 218 208 210 216 211 208 199 196 201 204
297 335 329 293 310 204 259 112 215 234 202 184 192 192 196 197 195 202 203 206 206 213 211 208 208 203 198 195 199 195 200 227 222 222 227 231 234 235 230 241 232 231 225 223 211 208 208 205 199
348 50 343 280 334 336 20 291 308 265 185 186 193 197 200 203 201 199 202 206 209 206 211 210 210 211 206 207 206 206 207 248 241 237 239 250 253 242 240 245 245 244 236 228 216 210 212 213 214
358 233 260 304 151 341 70 302 302 234 185 190 192 201 204 206 209 206 202 201 210 212 211 211 213 214 215 217 220 225 227 240 266 253 254 241 250 249 242 245 245 244 242 232 227 219 216 213 220
210 201 247 247 306 -0 323 285 292 213 200 189 201 201 205 209 217 209 206 205 205 218 217 218 216 216 217 223 229 232 235 241 252 254 254 258 246 250 252 248 244 242 243 233 227 224 227 223 227
207 233 237 268 275 325 282 281 284 225 208 207 213 200 210 217 221 214 212 209 210 217 220 220 219 218 215 217 222 230 233 233 236 242 249 252 251 249 254 255 254 254 246 235 227 227 230 234 230
236 248 267 294 267 164 277 279 279 211 215 208 207 206 215 224 214 215 214 211 213 215 219 222 222 221 218 220 228 231 236 234 239 241 250 248 250 249 258 260 262 264 252 233 223 224 227 231 227
226 217 260 245 311 214 267 286 277 277 216 217 223 222 222 223 217 214 214 214 212 215 218 217 222 222 220 220 222 227 231 236 239 243 251 254 253 260 259 267 268 267 246 227 220 220 222 226 221
255 209 248 265 53 274 128 276 295 281 303 196 225 218 223 231 218 215 218 216 211 218 218 217 220 222 221 222 222 231 245 252 266 263 261 259 247 247 257 274 271 266 242 224 217 216 215 217 218
246 197 213 251 251 117 215 149 259 333 304 289 288 220 223 232 212 213 216 221 214 216 218 217 218 223 223 223 225 235 245 252 262 264 254 244 242 241 250 264 272 269 243 224 220 221 224 227 227
241 321 43 51 81 306 244 181 239 209 225 278 275 277 260 224 208 214 218 216 212 214 216 215 217 222 224 222 229 241 252 266 260 248 242 252 251 252 258 257 264 261 242 219 212 220 226 229 225
132 57 316 329 347 240 248 198 236 220 221 227 255 273 259 225 201 202 204 209 209 212 215 212 215 220 222 220 230 245 255 256 257 272 266 266 275 268 263 261 262 249 244 219 213 222 228 229 233
186 163 169 242 268 281 32 240 260 244 269 270 267 255 242 205 197 204 208 211 211 212 214 209 212 217 219 218 226 234 240 248 244 250 279 272 275 281 265 258 255 239 232 227 219 218 218 222 226
216 161 199 150 45 89 260 288 314 306 290 309 254 211 207 196 198 203 207 211 209 210 212 210 209 212 215 218 226 245 241 275 254 213 282 272 270 266 261 269 251 229 226 229 215 222 223 233 236
172 177 155 98 275 251 272 276 247 298 306 327 286 182 192 195 194 200 202 202 202 209 210 207 205 209 210 221 239 216 216 225 182 233 260 261 262 263 257 252 223 216 228 223 225 224 236 242 242
267 143 51 103 145 197 236 270 218 256 289 75 14 79 116 140 161 178 188 197 203 205 204 196 199 205 209 224 202 202 210 210 232 252 253 260 262 260 240 235 218 215 214 224 227 239 243 239 234
188 212 165 184 246 200 193 263 344 273 92 110 96 75 93 110 133 158 177 188 193 194 188 191 197 208 215 214 195 200 210 227 229 235 250 264 260 247 227 224 215 218 221 224 242 240 234 233 238
Height
1506 1508 1508 1508 1513 1512 1511 1503 1491 1493 1493 1490 1492 1493 1494 1495 1497 1510 1498 1502 1506 1509 1513 1515 1518 1520 1522 1524 1526 1527 1529 1530 1532 1533 1534 1535 1535 1536 1537 1539 1540 1541 1542 1543 1545 1545 1545 1546 1547
1506 1507 1509 1509 1516 1518 1512 1494 1496 1491 1492 1492 1493 1493 1495 1498 1496 1497 1500 1503 1508 1510 1513 1516 1520 1522 1523 1525 1526 1528 1530 1531 1533 1534 1535 1536 1537 1538 1539 1539 1540 1541 1543 1545 1546 1546 1547 1548 1549
1507 1509 1510 1510 1516 1519 1509 1493 1492 1493 1493 1491 1492 1495 1496 1497 1496 1498 1501 1503 1508 1511 1514 1517 1519 1521 1523 1526 1528 1529 1531 1532 1533 1535 1536 1537 1538 1539 1540 1540 1541 1542 1544 1546 1547 1548 1548 1549 1550
1509 1511 1511 1514 1513 1498 1493 1491 1489 1492 1494 1492 1492 1495 1497 1497 1497 1500 1500 1503 1507 1511 1515 1518 1520 1522 1524 1526 1528 1530 1531 1533 1534 1535 1536 1538 1539 1541 1542 1542 1543 1544 1545 1546 1548 1549 1550 1551 1552
1509 1508 1512 1511 1505 1490 1486 1486 1486 1489 1491 1492 1493 1496 1497 1498 1499 1499 1500 1502 1506 1510 1514 1517 1520 1522 1525 1527 1529 1530 1532 1534 1535 1536 1537 1538 1540 1541 1542 1543 1544 1545 1546 1547 1549 1550 1551 1552 1554
1506 1507 1513 1515 1499 1488 1486 1486 1486 1487 1492 1493 1495 1495 1499 1499 1500 1502 1504 1506 1510 1511 1514 1518 1520 1522 1524 1527 1529 1531 1532 1534 1535 1537 1538 1539 1540 1541 1543 1544 1545 1546 1548 1548 1549 1551 1552 1554 1555
1507 1508 1514 1509 1498 1493 1487 1487 1487 1483 1490 1492 1491 1496 1499 1500 1502 1504 1506 1509 1512 1514 1515 1517 1519 1522 1524 1526 1528 1530 1532 1534 1536 1537 1539 1540 1541 1542 1543 1544 1545 1547 1548 1549 1550 1552 1553 1555 1556
1508 1508 1508 1504 1504 1501 1487 1485 1483 1480 1488 1488 1489 1491 1497 1497 1502 1505 1507 1509 1512 1514 1515 1517 1519 1521 1523 1525 1528 1530 1531 1533 1535 1537 1538 1540 1541 1542 1543 1544 1545 1547 1549 1549 1551 1552 1553 1555 1557
1508 1513 1518 1508 1501 1492 1487 1486 1483 1483 1482 1485 1485 1485 1485 1493 1499 1502 1505 1508 1510 1512 1514 1516 1518 1520 1523 1525 1527 1529 1531 1533 1535 1536 1538 1539 1540 1541 1542 1544 1545 1547 1548 1550 1551 1552 1553 1555 1557
1506 1515 1506 1491 1489 1487 1481 1486 1481 1482 1482 1483 1484 1486 1484 1490 1495 1498 1500 1503 1508 1510 1512 1514 1516 1518 1522 1524 1527 1529 1531 1533 1534 1536 1538 1540 1540 1541 1542 1544 1545 1546 1548 1549 1551 1553 1554 1555 1557
1497 1502 1491 1485 1482 1479 1477 1481 1482 1478 1483 1475 1476 1481 1481 1487 1492 1495 1499 1500 1502 1507 1511 1513 1515 1517 1518 1521 1525 1528 1530 1531 1533 1535 1537 1538 1539 1539 1540 1542 1544 1545 1547 1548 1550 1551 1553 1555 1557
1494 1489 1486 1479 1478 1472 1470 1473 1477 1475 1467 1468 1474 1477 1475 1481 1486 1490 1495 1499 1502 1505 1508 1511 1513 1515 1517 1520 1523 1526 1528 1530 1531 1532 1535 1536 1537 1537 1538 1541 1542 1544 1546 1547 1548 1551 1552 1554 1557
1488 1483 1480 1476 1472 1472 1468 1467 1474 1472 1469 1469 1472 1477 1479 1476 1481 1487 1493 1498 1500 1503 1506 1509 1512 1514 1516 1519 1522 1524 1526 1527 1530 1531 1533 1534 1536 1536 1537 1539 1541 1543 1544 1546 1547 1548 1550 1552 1554
1479 1478 1474 1472 1467 1469 1468 1469 1470 1465 1469 1472 1471 1472 1476 1478 1479 1485 1489 1494 1498 1500 1503 1507 1509 1512 1514 1516 1519 1519 1522 1526 1528 1529 1530 1532 1533 1534 1536 1538 1539 1541 1542 1544 1545 1547 1549 1551 1552
1477 1478 1470 1466 1468 1471 1465 1472 1471 1464 1466 1466 1470 1468 1470 1475 1479 1481 1484 1489 1494 1497 1501 1503 1506 1509 1512 1515 1518 1521 1522 1522 1524 1526 1528 1530 1531 1533 1534 1535 1537 1539 1541 1542 1544 1545 1548 1549 1551
1478 1482 1492 1467 1463 1462 1462 1479 1453 1457 1458 1463 1464 1466 1466 1471 1472 1479 1483 1487 1492 1494 1496 1501 1503 1506 1510 1512 1515 1518 1519 1520 1521 1524 1527 1528 1528 1530 1532 1533 1534 1536 1537 1539 1541 1543 1545 1547 1548
1488 1497 1490 1477 1464 1468 1471 1473 1451 1450 1451 1453 1456 1461 1462 1469 1473 1475 1480 1484 1488 1490 1493 1497 1500 1503 1506 1509 1511 1513 1516 1518 1520 1521 1523 1525 1527 1528 1529 1530 1532 1533 1533 1535 1538 1540 1541 1544 1545
1495 1492 1488 1484 1461 1464 1468 1468 1454 1453 1454 1449 1453 1456 1459 1463 1461 1467 1473 1479 1484 1487 1490 1494 1497 1500 1503 1506 1508 1511 1513 1515 1517 1519 1520 1521 1523 1525 1526 1527 1528 1529 1530 1531 1534 1537 1539 1540 1543
1478 1481 1484 1471 1462 1469 1468 1467 1452 1449 1453 1450 1453 1453 1454 1453 1455 1467 1470 1474 1480 1484 1487 1490 1494 1497 1500 1502 1504 1507 1509 1512 1514 1515 1517 1518 1519 1521 1522 1524 1524 1524 1525 1527 1530 1533 1536 1538 1541
1475 1481 1481 1470 1459 1471 1467 1465 1451 1448 1443 1445 1445 1446 1448 1448 1455 1460 1465 1469 1473 1477 1482 1486 1489 1493 1496 1500 1502 1505 1507 1510 1513 1514 1514 1515 1516 1517 1519 1519 1520 1519 1519 1521 1525 1529 1532 1535 1538
1475 1480 1477 1478 1464 1463 1465 1469 1456 1441 1440 1442 1445 1443 1443 1443 1446 1453 1456 1458 1466 1472 1475 1480 1484 1488 1492 1497 1501 1504 1506 1508 1509 1509 1511 1512 1514 1515 1515 1516 1515 1515 1515 1517 1521 1525 1529 1532 1535
1483 1463 1464 1467 1477 1487 1461 1496 1462 1444 1441 1438 1437 1436 1434 1437 1442 1446 1450 1454 1458 1463 1471 1477 1481 1485 1490 1494 1498 1502 1504 1505 1506 1507 1507 1508 1510 1512 1511 1511 1511 1511 1512 1515 1519 1523 1526 1529 1531
1463 1454 1462 1463 1471 1474 1470 1490 1464 1446 1443 1433 1425 1426 1425 1424 1429 1433 1439 1444 1449 1459 1465 1472 1479 1483 1486 1491 1496 1498 1499 1501 1503 1503 1504 1504 1506 1508 1508 1508 1509 1509 1509 1512 1516 1520 1523 1525 1528
1446 1453 1463 1472 1480 1495 1469 1477 1466 1454 1440 1428 1421 1418 1417 1417 1421 1425 1432 1438 1445 1453 1460 1468 1474 1480 1484 1490 1494 1497 1499 1501 1499 1500 1500 1502 1502 1504 1505 1506 1507 1507 1507 1508 1512 1516 1519 1521 1523
1452 1471 1496 1503 1504 1496 1465 1469 1452 1432 1426 1423 1416 1413 1412 1412 1418 1426 1430 1435 1441 1448 1455 1464 1471 1476 1483 1489 1493 1495 1497 1496 1497 1500 1498 1499 1501 1501 1502 1504 1505 1505 1506 1508 1510 1512 1515 1517 1518
1457 1469 1501 1504 1507 1484 1470 1474 1441 1418 1412 1411 1408 1406 1409 1412 1417 1422 1427 1430 1435 1443 1451 1461 1467 1474 1480 1486 1491 1492 1493 1492 1488 1493 1494 1496 1498 1499 1500 1502 1501 1502 1504 1506 1508 1510 1512 1513 1515
1449 1466 1452 1475 1485 1493 1476 1452 1423 1413 1409 1406 1399 1401 1405 1409 1413 1418 1423 1428 1434 1441 1448 1456 1465 1473 1480 1485 1486 1487 1490 1490 1489 1493 1493 1493 1495 1496 1496 1497 1498 1499 1502 1504 1507 1509 1510 1510 1512
1438 1439 1461 1475 1484 1491 1480 1465 1456 1425 1416 1409 1404 1398 1402 1408 1412 1416 1422 1428 1435 1441 1448 1457 1466 1471 1478 1481 1484 1486 1489 1491 1490 1490 1490 1493 1494 1493 1493 1494 1495 1497 1501 1503 1504 1506 1508 1508 1509
1440 1445 1450 1458 1477 1487 1490 1470 1426 1420 1415 1412 1414 1407 1408 1412 1417 1423 1429 1431 1435 1441 1449 1458 1464 1470 1475 1478 1482 1485 1488 1490 1491 1491 1492 1493 1493 1492 1493 1493 1494 1496 1499 1501 1503 1504 1505 1506 1508
1424 1433 1437 1464 1471 1480 1477 1461 1417 1415 1412 1409 1416 1417 1414 1417 1421 1426 1432 1436 1441 1446 1452 1457 1462 1467 1473 1479 1482 1484 1486 1487 1488 1491 1492 1492 1492 1492 1492 1493 1494 1496 1496 1498 1501 1502 1503 1505 1507